When you browse on this site, cookies collect data to enhance your experience and personalize the content and advertising you see.
Visit our Privacy Policy to learn more. By continuing to use the site, you agree to this use of cookies and data.
  • In United Kingdom
  • List of Countries
  • For 7 days
  • Water Temperature
  • Weather Map
  • Weather Widgets
  • user-avatar
    Login

    Hourly Weather Abergavenny

    Today, 24 February, Monday

    Time Temperature Precipitation Wind Pressure Humidity
    00:00 +5°C° 0 mm 2 mps 749 mmHg 78%
    01:00 +4°C° 0.3 mm 3 mps 748 mmHg 84%
    02:00 +4°C° 0.3 mm 3 mps 746 mmHg 89%
    03:00 +4°C° 0.3 mm 4 mps 745 mmHg 95%
    04:00 +5°C° 0.3 mm 6 mps 743 mmHg 94%
    05:00 +6°C° 0.3 mm 8 mps 742 mmHg 93%
    06:00 +7°C° 0.3 mm 11 mps 741 mmHg 92%
    07:00 +7°C° 1.3 mm 11 mps 740 mmHg 92%
    08:00 +7°C° 1.3 mm 11 mps 740 mmHg 93%
    09:00 +8°C° 1.3 mm 11 mps 739 mmHg 93%
    10:00 +8°C° 1.6 mm 11 mps 738 mmHg 92%
    11:00 +8°C° 1.6 mm 12 mps 738 mmHg 92%
    12:00 +8°C° 1.6 mm 12 mps 738 mmHg 91%
    13:00 +8°C° 0.1 mm 12 mps 737 mmHg 89%
    14:00 +7°C° 0.1 mm 11 mps 737 mmHg 87%
    15:00 +7°C° 0.1 mm 11 mps 737 mmHg 85%
    16:00 +6°C° 0 mm 10 mps 737 mmHg 83%
    17:00 +5°C° 0 mm 9 mps 738 mmHg 81%
    18:00 +4°C° 0 mm 8 mps 738 mmHg 80%
    19:00 +4°C° 0 mm 7 mps 738 mmHg 81%
    20:00 +3°C° 0 mm 6 mps 739 mmHg 83%
    21:00 +2°C° 0 mm 5 mps 739 mmHg 84%
    22:00 +2°C° 0 mm 5 mps 739 mmHg 85%
    23:00 +1°C° 0 mm 5 mps 739 mmHg 85%

    Tomorrow, 25 February, Tuesday

    Time Temperature Precipitation Wind Pressure Humidity
    00:00 +1°C° 0 mm 5 mps 739 mmHg 85%
    01:00 +1°C° 0 mm 5 mps 739 mmHg 85%
    02:00 0°C° 0 mm 5 mps 738 mmHg 84%
    03:00 0°C° 0 mm 5 mps 737 mmHg 84%
    04:00 -1°C° 0 mm 6 mps 737 mmHg 85%
    05:00 +1°C° 0 mm 6 mps 737 mmHg 86%
    06:00 0°C° 0 mm 7 mps 737 mmHg 86%
    07:00 0°C° 0 mm 7 mps 736 mmHg 83%
    08:00 +2°C° 0 mm 7 mps 736 mmHg 80%
    09:00 +2°C° 0 mm 7 mps 736 mmHg 77%
    10:00 +3°C° 0.1 mm 7 mps 735 mmHg 75%
    11:00 +3°C° 0.1 mm 7 mps 735 mmHg 72%
    12:00 +4°C° 0.1 mm 8 mps 734 mmHg 70%
    13:00 +2°C° 0.6 mm 8 mps 733 mmHg 75%
    14:00 +1°C° 0.6 mm 8 mps 732 mmHg 80%
    15:00 0°C° 0.6 mm 8 mps 731 mmHg 85%
    16:00 0°C° 0.2 mm 8 mps 731 mmHg 82%
    17:00 -1°C° 0.2 mm 8 mps 731 mmHg 80%
    18:00 -2°C° 0.2 mm 7 mps 731 mmHg 78%
    19:00 -2°C° 0 mm 8 mps 731 mmHg 79%
    20:00 -2°C° 0 mm 8 mps 731 mmHg 80%
    21:00 -4°C° 0 mm 8 mps 731 mmHg 80%
    22:00 -4°C° 0 mm 8 mps 732 mmHg 80%
    23:00 -4°C° 0 mm 8 mps 732 mmHg 80%

    Day after tomorrow, 26 February, Wednesday

    Time Temperature Precipitation Wind Pressure Humidity
    00:00 -4°C° 0 mm 8 mps 732 mmHg 79%
    01:00 -4°C° 0 mm 8 mps 733 mmHg 81%
    02:00 -2°C° 0 mm 8 mps 733 mmHg 83%
    03:00 -2°C° 0 mm 8 mps 733 mmHg 85%
    04:00 -2°C° 0 mm 8 mps 734 mmHg 84%
    05:00 -2°C° 0 mm 8 mps 735 mmHg 82%
    06:00 -2°C° 0 mm 8 mps 735 mmHg 81%
    07:00 -1°C° 0 mm 8 mps 737 mmHg 77%
    08:00 -1°C° 0 mm 9 mps 738 mmHg 73%
    09:00 0°C° 0 mm 10 mps 739 mmHg 69%
    10:00 +1°C° 0 mm 9 mps 739 mmHg 66%
    11:00 +1°C° 0 mm 9 mps 740 mmHg 63%
    12:00 +2°C° 0 mm 9 mps 741 mmHg 59%
    13:00 +2°C° 0 mm 8 mps 741 mmHg 61%
    14:00 +2°C° 0 mm 8 mps 741 mmHg 62%
    15:00 +3°C° 0 mm 7 mps 741 mmHg 64%
    16:00 +2°C° 0 mm 6 mps 741 mmHg 69%
    17:00 +1°C° 0 mm 5 mps 741 mmHg 74%
    18:00 0°C° 0 mm 4 mps 741 mmHg 79%
    19:00 0°C° 0 mm 4 mps 741 mmHg 81%
    20:00 0°C° 0 mm 3 mps 740 mmHg 82%
    21:00 0°C° 0 mm 3 mps 740 mmHg 84%
    22:00 0°C° 0 mm 3 mps 740 mmHg 85%
    23:00 +1°C° 0 mm 3 mps 739 mmHg 85%

    27 February, Thursday

    Time Temperature Precipitation Wind Pressure Humidity
    00:00 +2°C° 0 mm 2 mps 739 mmHg 86%
    01:00 +1°C° 0.5 mm 3 mps 737 mmHg 90%
    02:00 +1°C° 0.5 mm 3 mps 736 mmHg 94%
    03:00 +1°C° 0.5 mm 3 mps 735 mmHg 97%
    04:00 0°C° 1.6 mm 4 mps 733 mmHg 98%
    05:00 -1°C° 1.6 mm 4 mps 732 mmHg 98%
    06:00 -1°C° 1.6 mm 5 mps 730 mmHg 98%
    07:00 -1°C° 0.9 mm 4 mps 730 mmHg 98%
    08:00 0°C° 0.9 mm 4 mps 729 mmHg 98%
    09:00 0°C° 0.9 mm 4 mps 729 mmHg 98%
    10:00 +1°C° 0 mm 3 mps 730 mmHg 98%
    11:00 +2°C° 0 mm 3 mps 730 mmHg 97%
    12:00 +2°C° 0 mm 3 mps 731 mmHg 97%
    13:00 +2°C° 0 mm 3 mps 731 mmHg 95%
    14:00 +3°C° 0 mm 3 mps 732 mmHg 94%
    15:00 +3°C° 0 mm 3 mps 733 mmHg 92%
    16:00 +2°C° 0 mm 3 mps 734 mmHg 92%
    17:00 +2°C° 0 mm 3 mps 735 mmHg 92%
    18:00 +1°C° 0 mm 3 mps 736 mmHg 91%
    19:00 +1°C° 0 mm 3 mps 736 mmHg 92%
    20:00 0°C° 0 mm 3 mps 737 mmHg 93%
    21:00 +1°C° 0 mm 2 mps 738 mmHg 93%
    22:00 -1°C° 0 mm 2 mps 738 mmHg 93%
    23:00 +1°C° 0 mm 1 mps 739 mmHg 93%

    28 February, Friday

    Time Temperature Precipitation Wind Pressure Humidity
    00:00 0°C° 0 mm 1 mps 739 mmHg 92%
    01:00 0°C° 0 mm 1 mps 739 mmHg 92%
    02:00 +1°C° 0 mm 1 mps 739 mmHg 91%
    03:00 +1°C° 0 mm 1 mps 739 mmHg 91%
    04:00 +1°C° 0 mm 1 mps 739 mmHg 91%
    05:00 +1°C° 0 mm 1 mps 738 mmHg 91%
    06:00 +1°C° 0 mm 2 mps 738 mmHg 90%
    07:00 +1°C° 0.1 mm 2 mps 738 mmHg 91%
    08:00 +1°C° 0.1 mm 3 mps 737 mmHg 92%
    09:00 +1°C° 0.1 mm 3 mps 737 mmHg 93%
    10:00 +2°C° 0.2 mm 3 mps 736 mmHg 94%
    11:00 +1°C° 0.2 mm 4 mps 736 mmHg 95%
    12:00 +1°C° 0.2 mm 4 mps 735 mmHg 96%
    13:00 +3°C° 0.3 mm 4 mps 734 mmHg 96%
    14:00 +3°C° 0.3 mm 4 mps 734 mmHg 97%
    15:00 +3°C° 0.3 mm 4 mps 733 mmHg 97%
    16:00 +4°C° 0 mm 4 mps 733 mmHg 97%
    17:00 +4°C° 0 mm 4 mps 732 mmHg 97%
    18:00 +4°C° 0 mm 4 mps 732 mmHg 97%
    19:00 +3°C° 0 mm 5 mps 731 mmHg 97%
    20:00 +3°C° 0 mm 5 mps 731 mmHg 96%
    21:00 +3°C° 0 mm 5 mps 730 mmHg 96%
    22:00 +4°C° 0.6 mm 6 mps 729 mmHg 96%
    23:00 +4°C° 0.6 mm 7 mps 727 mmHg 95%

    29 February, Saturday

    Time Temperature Precipitation Wind Pressure Humidity
    00:00 +4°C° 0.6 mm 7 mps 726 mmHg 95%
    01:00 +2°C° 1.3 mm 7 mps 726 mmHg 91%
    02:00 0°C° 1.3 mm 7 mps 726 mmHg 86%
    03:00 -2°C° 1.3 mm 6 mps 726 mmHg 82%
    04:00 -2°C° 0 mm 6 mps 726 mmHg 82%
    05:00 -2°C° 0 mm 5 mps 726 mmHg 82%
    06:00 -4°C° 0 mm 5 mps 726 mmHg 81%
    07:00 -2°C° 0 mm 5 mps 726 mmHg 79%
    08:00 -2°C° 0 mm 6 mps 726 mmHg 76%
    09:00 -1°C° 0 mm 6 mps 726 mmHg 73%
    10:00 -1°C° 0.1 mm 7 mps 727 mmHg 71%
    11:00 0°C° 0.1 mm 8 mps 727 mmHg 68%
    12:00 +1°C° 0.1 mm 8 mps 727 mmHg 65%
    13:00 +1°C° 0.1 mm 8 mps 727 mmHg 64%
    14:00 +1°C° 0.1 mm 8 mps 727 mmHg 62%
    15:00 +1°C° 0.1 mm 8 mps 727 mmHg 60%
    16:00 0°C° 0 mm 7 mps 727 mmHg 66%
    17:00 -1°C° 0 mm 6 mps 727 mmHg 71%
    18:00 -1°C° 0 mm 5 mps 727 mmHg 76%
    19:00 -1°C° 0 mm 5 mps 728 mmHg 77%
    20:00 -1°C° 0 mm 5 mps 728 mmHg 79%
    21:00 -2°C° 0 mm 5 mps 729 mmHg 81%
    22:00 -1°C° 0 mm 5 mps 730 mmHg 82%
    23:00 -2°C° 0 mm 6 mps 731 mmHg 82%
    Show more